Volver al catálogo

CZ-6A DEB

ActivoPO
NORAD 61082·DEBRIS·🇨🇳 China

Lanzado Aug 6, 2024 desde Taiyuan Satellite Launch Center

Loading…

Próximos Pases (próximas 24 horas)

TLE

ActualizadoSource: Space-Track

Época: Sep 14, 2026, 07:19 UTC

1 61082U 24140MY  26257.30488191  .00000091  00000-0  50627-4 0  9998
2 61082  88.9659 265.2812 0145813 338.3749  21.1309 13.97578998104680

Sigue CZ-6A DEB en tiempo real con AllMySat

Download on the App Store